Content
SEND FEEDBACK

Daily
Averages
Monthly
Summary
United States of America

NORCROSS, GEORGIA


Home > North America > United States > Georgia
Elevation: 95 feet     Latitude: 34 00N     Longitude: 084 12W

WEATHER
 
SELECT A DAY
Number of Records: 189,337;   Date Range: 1/1/95 - 9/18/14
 
SHARE

PRINT THIS DATA

[ ← Previous Day ]
WEATHER ALMANAC - JANUARY 31, 2013
[ Next Day → ]
[ °C ]   °F
Weather ElementAverageHighLow
Temperature40 °F46.9 °F (3:53 pm)34 °F (6:53 am)
Dewpoint24.6 °F30.9 °F (1:53 am)21.9 °F (5:53 pm)
Humidity55 %70 % (1:53 am)39 % (3:53 pm)
Barometer30.09 in30.18 in (8:53 pm)29.88 in (1:53 am)
Wind Speed13.3 mph26.5 mph (1:53 am)
Wind Gust33.4 mph (1:53 am)
Weather ElementAverage
Visibility10 mi
Wind DirectionW (270.4 °)

Weather ElementTotal
Precipitation---
Heating Degree Days24.6 (Base 65)
Averaged from 24 records on January 31, 2013
WEATHER CONDITIONS BREAKOUT
WIND DIRECTION BREAKOUT
WEATHER BY HOUR - JANUARY 31, 2013
[ °C ]   °F
Local TimeTemperatureDewpointHumidityBarometerVisibilityWind DirectionWind SpeedGust SpeedPrecipitationEventsConditions
1:53 AM39.9 °F30.9 °F70 %29.88 in10.0 miWNW (290°)26.5 mph33.4 mphOvercast
2:53 AM37.0 °F26.1 °F65 %29.92 in10.0 miWNW (290°)17.3 mph29.9 mphPartly Cloudy
3:53 AM37.0 °F26.1 °F65 %29.96 in10.0 miWest (270°)15.0 mph25.3 mphOvercast
4:53 AM36.0 °F26.1 °F67 %29.97 in10.0 miWest (280°)13.8 mph20.7 mphOvercast
5:53 AM35.1 °F25.0 °F67 %30.01 in10.0 miWest (280°)16.1 mph23.0 mphScattered Clouds
6:53 AM34.0 °F24.1 °F67 %30.03 in10.0 miWNW (290°)12.7 mphClear
7:53 AM34.0 °F24.1 °F67 %30.05 in10.0 miWest (280°)11.5 mph19.6 mphClear
8:53 AM35.1 °F24.1 °F64 %30.07 in10.0 miWest (280°)16.1 mph23.0 mphClear
9:03 AM35.6 °F24.8 °F65 %30.05 in10.0 miWest (280°)11.5 mph24.2 mphPartly Cloudy
9:53 AM37.0 °F24.1 °F59 %30.11 in10.0 miWest (280°)15.0 mph23.0 mphClear
10:53 AM39.0 °F25.0 °F57 %30.12 in10.0 miWest (280°)12.7 mph20.7 mphClear
11:53 AM43.0 °F25.0 °F49 %30.13 in10.0 miWest (280°)16.1 mph31.1 mphClear
12:53 PM44.1 °F25.0 °F47 %30.13 in10.0 miWNW (290°)11.5 mph20.7 mphClear
1:53 PM45.0 °F23.0 °F42 %30.12 in10.0 miWNW (290°)16.1 mph26.5 mphClear
2:53 PM45.0 °F23.0 °F42 %30.13 in10.0 miWNW (290°)15.0 mph29.9 mphClear
3:53 PM46.9 °F23.0 °F39 %30.13 in10.0 miWNW (290°)15.0 mph19.6 mphClear
4:53 PM46.9 °F23.0 °F39 %30.12 in10.0 miWNW (290°)13.8 mphClear
5:53 PM45.0 °F21.9 °F40 %30.13 in10.0 miWSW (250°)10.4 mphClear
6:53 PM42.1 °F23.0 °F47 %30.16 in10.0 miWest (260°)6.9 mphClear
7:53 PM41.0 °F24.1 °F51 %30.16 in10.0 miSW (230°)6.9 mphClear
8:53 PM41.0 °F24.1 °F51 %30.18 in10.0 miWSW (250°)6.9 mphClear
9:53 PM41.0 °F24.1 °F51 %30.18 in10.0 miSW (230°)10.4 mphClear
10:53 PM39.9 °F25.0 °F55 %30.18 in10.0 miSW (220°)10.4 mphClear
11:53 PM39.9 °F25.0 °F55 %30.18 in10.0 miSW (220°)11.5 mphClear
Hourly data recorded from KPDK, located miles away from Norcross, Georgia







STORIES FROM OUR PARTNERS